Weather Roundup
Issued by NWS Chicago, IL

Home | Current Version | Previous Version | Graphics & Text | Print | Product List | Glossary On
Versions: 1 2 3 4 5 6 7 8 9 10 11 12 13 14 15 16 17 18 19 20 21 22 23 24 25 26 27 28 29 30 31 32 33 34 35 36 37 38 39 40 41 42 43 44 45 46 47 48 49 50
000
NZUS59 KLOT 281609
HRRLOT

CHICAGO AREA WEATHER ROUNDUP
NATIONAL WEATHER SERVICE CHICAGO/ROMEOVILLE IL
1100 AM CDT SAT MAY 28 2016

NOTE: "FAIR" INDICATES FEW OR NO CLOUDS BELOW 12,000 FEET WITH NO
SIGNIFICANT WEATHER AND/OR OBSTRUCTIONS TO VISIBILITY.

* THESE STATIONS ARE NOT UNDER NWS QUALITY CONTROL. THEY ALSO MAY NOT
  REPORT WEATHER SUCH AS PRECIPITATION OR FOG.

ILZ005-006-012>014-019>023-281700-
NORTHEAST ILLINOIS

CITY           SKY/WX    TMP DP  RH WIND       PRES   REMARKS
OHARE          CLOUDY    75  65  70 S20G26    29.91R
MIDWAY         PTSUNNY   76  64  66 S17       29.92R
AURORA         CLOUDY    75  66  73 S18G26    29.91S
LANSING*       CLOUDY    75  65  69 SW21      29.95R
JOLIET*        CLOUDY    75  67  76 S12G18    29.93S
WAUKEGAN       LGT RAIN  76  66  71 S21G28    29.89S
DUPAGE AIRPORT CLOUDY    74  65  73 S14       29.91R
WHEELING       CLOUDY    76  65  68 S15G26    29.91S
KANKAKEE*      CLOUDY    74  65  75 S18       29.97R
MORRIS*        CLOUDY    74  65  74 S17       29.91S
LEWIS AIRPORT* CLOUDY    74  64  70 S17       29.93S
$$

WIZ051-052-058>065-066-070>072-281700-
SOUTHEAST WISCONSIN

CITY           SKY/WX    TMP DP  RH WIND       PRES   REMARKS
MILWAUKEE      CLOUDY    75  65  70 S20       29.87R
KENOSHA*       CLOUDY    76  65  68 S16G24    29.89R
RACINE*        PTSUNNY   75  65  70 S10       29.90R
BURLINGTON     PTSUNNY   75  66  71 S16G22    29.87S
WAUKESHA       CLOUDY    72  64  78 S14       29.88R
WEST BEND      CLOUDY    73  64  73 S14       29.85S
$$

INZ001>003-010>013-019-020-281700-
NORTHWEST INDIANA

CITY           SKY/WX    TMP DP  RH WIND       PRES   REMARKS
GARY*          CLOUDY    77  72  83 S14G28    29.95R
MICHIGAN CITY* NOT AVBL
RENSSELAER*    NOT AVBL
VALPARAISO     CLOUDY    76  65  68 S20G30    29.98R
$$

LMZ740>746-281700-
SOUTHERN LAKE MICHIGAN

STATION/POSITION TIME  SKY/WX   TEMP WIND        PRES    VSBY
                                AIR  DIR/SP/G
                 (UTC)          (F)  (DEG/KT/KT) (MB)    (MI)
HARRISON CRIB    1500            72  200/ 25/ 26   N/A
BURNHAM HARBOR   1600            75  190/ 12/ 20   N/A
CALUMET HARBOR   1500            74  180/ 13/ 17 1012.7R
BURNS HARBOR     1500            74  200/ 17/ 24 1014.2R
MICHIGAN CITY    1500            75  180/ 21/ 26   N/A
$$

ABBREVIATIONS USED IN REMARKS
   TC - TEMPERATURE IN CELSIUS
  WCI - WIND CHILL INDEX
   HX - HEAT INDEX
  VSB - VISIBILITY
$$




USA.gov is the U.S. government's official web portal to all federal, state and local government web resources and services.